Wind_Speed
25 24 21 20 19 19 20 20 17 14 14 13 13 12 13 14 15 16 16 16 15 13 12 12 12 12 11 11 11 12 12 13 13 14 14 15 15 16 15 14 14 14 14 13
25 22 20 22 22 22 22 20 17 14 13 13 14 14 15 15 16 17 17 16 15 15 14 13 13 12 12 12 12 13 13 13 14 14 15 16 16 16 15 15 14 15 15 15
24 21 23 23 23 23 22 19 16 15 14 15 16 17 17 17 17 16 15 15 15 16 15 14 14 12 12 12 13 13 13 13 14 14 15 15 16 16 15 14 14 15 16 15
25 24 25 24 23 22 21 18 17 17 17 17 17 18 18 17 16 15 14 13 13 14 15 14 13 12 13 13 13 12 13 13 14 15 13 14 15 16 15 15 16 15 15 15
24 25 25 24 23 22 21 19 19 20 20 20 20 20 17 18 19 17 16 13 11 12 14 14 13 13 13 12 11 11 11 11 12 13 13 14 16 16 16 16 17 16 16 15
25 26 26 23 23 22 20 20 21 23 24 22 21 21 19 19 19 18 15 12 11 11 11 12 12 12 12 11 10 10 10 10 11 12 12 13 15 16 16 16 16 17 16 16
26 27 25 24 24 23 22 22 23 24 24 22 20 21 19 19 19 17 14 12 11 11 11 11 11 11 10 10 9 9 10 9 10 11 12 13 14 15 15 17 17 17 17 17
26 26 24 24 23 22 23 23 23 22 22 20 20 21 20 20 18 16 14 12 11 11 11 11 11 10 9 9 8 9 9 9 9 10 12 13 14 15 15 16 18 18 18 18
24 23 23 22 21 21 22 23 22 21 20 19 18 18 18 18 17 16 15 13 10 9 9 10 10 9 9 9 9 9 9 9 9 10 11 13 14 15 16 18 18 18 18 19
23 23 23 22 22 20 20 20 21 22 21 20 17 15 14 15 15 15 16 13 9 10 9 8 8 7 8 9 9 9 10 10 9 9 10 11 13 14 16 17 17 18 18 19
24 24 24 23 23 22 21 22 22 22 22 21 18 16 14 15 15 15 14 12 11 10 9 8 8 8 8 9 9 9 9 10 10 10 10 11 13 15 15 16 17 19 19 19
26 26 26 25 23 22 22 22 23 24 23 21 21 18 16 16 15 15 13 12 12 10 8 8 9 9 9 10 9 10 10 10 11 11 11 12 13 14 16 16 16 17 18 18
29 28 27 27 26 25 24 23 23 23 23 23 23 21 19 18 18 17 16 14 12 11 10 9 10 9 10 10 10 10 10 11 11 12 12 12 12 13 15 16 16 17 17 17
30 30 29 28 25 25 25 24 24 24 24 24 23 22 21 20 19 19 17 15 14 13 11 11 9 9 9 11 11 11 11 11 11 12 11 12 12 13 14 16 17 17 18 18
31 31 29 27 26 26 26 26 25 26 26 25 24 23 21 21 20 18 17 17 16 14 12 11 11 11 11 11 12 12 13 12 12 12 13 13 12 13 13 15 16 17 18 18
33 33 30 29 29 28 28 28 28 27 26 26 25 24 23 21 20 19 18 18 18 16 14 12 11 11 11 12 13 14 13 12 12 12 12 13 14 14 14 15 16 17 18 19
35 34 32 31 30 30 30 29 30 28 27 27 26 25 25 23 21 21 20 18 19 19 15 13 11 11 10 11 13 13 14 13 13 13 13 13 15 15 15 15 16 16 17 19
36 35 33 31 31 33 32 30 30 29 28 27 26 25 24 24 22 20 20 20 19 17 14 13 13 13 13 13 13 14 14 13 13 13 13 14 14 15 16 16 17 17 17 18
36 35 33 32 31 31 31 31 30 29 28 28 27 26 25 24 23 22 21 21 20 19 20 17 15 14 14 14 14 15 14 14 15 15 15 15 16 16 16 17 18 18 18 18
35 33 33 32 31 31 30 30 30 29 29 26 26 26 26 25 24 23 23 23 21 21 20 20 18 17 16 16 16 17 17 16 16 16 16 17 17 17 17 18 19 19 19 20
34 32 31 31 31 31 29 30 30 30 28 26 26 26 26 26 25 25 25 23 23 22 21 20 19 19 18 18 18 19 18 17 17 18 18 18 18 18 19 19 19 20 20 20
33 32 30 30 30 30 28 28 29 29 27 27 27 26 25 25 24 25 25 24 23 23 22 22 21 20 20 20 20 20 20 19 19 19 19 19 19 20 21 21 21 21 21 21
31 32 30 29 28 27 27 26 26 26 26 26 25 26 25 24 24 24 25 25 25 25 24 22 21 21 21 21 21 22 22 21 21 21 21 22 22 23 23 23 22 22 22 23
28 28 28 27 26 26 26 27 26 25 25 25 25 25 25 25 25 24 24 24 25 25 23 22 22 22 22 22 22 22 23 23 22 22 23 24 25 25 24 24 24 24 24 24
27 26 25 25 24 24 24 24 23 23 23 23 23 24 25 24 25 24 24 23 23 23 23 23 22 22 22 22 22 23 24 23 24 24 24 25 26 26 26 26 26 26 26 26
25 24 25 24 22 21 20 21 21 21 21 21 22 23 22 21 22 22 21 20 20 21 21 21 21 21 21 22 23 23 23 23 24 24 25 25 26 26 27 27 26 27 27 28
Wind_Direction
242 241 239 236 232 227 226 227 226 227 233 244 245 249 249 258 273 280 284 291 293 294 298 296 296 293 283 274 269 262 258 253 242 236 232 231 232 232 236 235 228 226 224 222
237 235 230 226 224 222 224 226 229 233 233 237 242 247 252 259 271 275 277 283 293 298 298 293 291 290 288 283 276 264 260 252 244 238 232 229 230 231 235 235 228 225 224 221
233 227 224 221 220 220 224 226 229 237 239 244 248 248 253 264 267 266 269 279 291 299 295 288 288 286 285 282 275 266 259 249 239 238 234 230 227 229 229 231 226 220 218 218
224 221 220 218 217 221 223 227 229 233 238 240 244 249 251 254 257 263 271 281 287 291 297 292 287 284 281 279 272 263 252 245 236 235 235 230 226 222 221 222 221 220 218 217
220 218 219 219 218 222 223 227 228 229 236 240 242 250 248 248 253 260 267 274 281 286 291 289 284 282 279 274 266 257 240 235 237 236 231 226 221 218 220 221 221 220 219 218
217 216 217 216 216 218 219 225 229 227 232 237 241 248 246 249 254 256 257 266 277 287 292 292 282 276 274 266 256 247 239 236 237 234 227 223 219 218 220 221 220 219 218 215
214 214 215 214 214 215 215 222 226 228 233 238 240 245 248 250 252 255 261 267 276 288 290 291 287 278 266 262 252 240 238 237 233 229 228 223 219 219 219 219 220 219 218 215
213 213 214 215 217 218 218 223 228 231 234 237 240 247 252 251 247 248 253 261 270 279 285 288 285 278 269 256 246 236 235 234 231 227 227 223 218 219 217 218 218 218 218 214
210 207 209 213 214 216 217 222 227 232 234 237 238 245 251 252 247 244 250 257 270 283 287 285 285 275 266 252 240 234 230 226 225 223 224 223 221 221 221 220 219 218 218 216
207 202 202 205 207 211 216 220 227 231 233 235 236 243 252 259 252 252 254 253 266 283 286 284 282 269 258 245 236 235 231 229 228 225 225 223 223 223 222 220 219 217 216 214
202 201 197 201 208 210 214 220 226 230 234 235 239 246 255 257 254 255 262 257 271 279 278 273 274 268 260 247 236 236 237 234 231 228 224 225 225 225 221 218 220 218 216 211
202 202 198 203 208 213 219 224 227 229 233 238 244 248 254 250 253 255 263 271 274 274 266 269 268 264 261 250 241 239 239 239 233 233 227 223 221 220 217 216 218 217 213 212
203 204 201 205 209 213 218 221 225 229 233 239 245 250 251 253 253 257 267 274 274 276 276 271 269 265 259 252 247 243 237 238 238 236 229 228 221 218 217 217 216 216 214 214
207 209 208 210 213 215 218 221 225 228 233 238 244 250 255 259 261 263 264 272 277 272 279 279 272 265 256 247 247 244 240 242 242 237 233 225 218 218 216 220 219 217 215 216
210 213 212 213 215 219 221 224 228 230 234 239 244 248 255 263 265 265 268 273 276 274 277 273 267 265 257 248 246 244 239 241 241 240 234 223 220 220 219 219 220 217 215 217
212 214 215 216 219 222 223 227 231 233 235 240 245 249 255 261 265 267 271 275 276 274 275 265 268 272 256 246 243 241 239 239 241 241 240 230 222 222 222 222 222 220 220 221
214 215 217 219 221 226 228 230 232 235 239 243 247 252 256 262 266 267 270 273 279 275 267 266 270 266 265 258 249 243 241 243 243 242 240 237 229 224 224 223 224 225 227 228
215 215 219 222 225 229 230 233 235 237 241 244 247 250 257 259 261 264 268 270 273 272 271 264 263 263 262 259 251 244 243 245 241 241 240 236 230 228 227 227 229 230 231 231
216 219 219 222 227 230 231 233 236 238 240 244 247 250 254 257 261 263 265 268 274 275 273 270 265 262 261 254 250 247 244 243 243 243 238 234 233 232 232 232 232 232 233 235
216 218 222 224 227 230 231 234 236 239 244 245 247 250 254 257 261 263 265 270 273 275 272 270 269 263 257 254 252 251 249 245 240 239 237 236 236 236 235 236 235 235 238 240
217 219 221 224 228 232 234 236 238 240 244 247 250 253 255 257 261 264 267 267 269 271 271 269 264 258 256 253 252 252 253 248 242 242 240 237 238 238 238 241 242 241 244 245
220 222 222 224 228 233 233 237 239 242 245 249 253 255 257 259 262 265 266 267 269 270 268 266 262 258 256 253 251 249 251 249 247 246 245 242 242 242 242 243 245 244 247 248
222 222 224 227 230 232 234 237 239 244 248 250 251 254 257 261 265 266 267 267 267 268 266 262 261 258 257 254 252 250 251 251 250 248 248 248 247 248 247 247 247 249 251 252
221 222 225 230 231 231 234 238 240 245 249 252 255 258 261 264 266 269 269 267 265 264 261 259 258 258 256 254 253 250 250 251 250 250 251 251 251 251 251 253 252 251 254 254
222 224 227 231 232 232 234 236 239 244 250 255 256 259 262 264 264 265 266 266 263 261 258 258 258 258 257 255 252 250 249 250 250 252 252 252 251 250 251 254 254 254 255 254
226 229 232 233 230 228 233 237 239 242 248 251 255 261 263 265 266 263 264 264 261 259 256 255 255 255 255 254 253 252 251 250 252 252 253 253 254 254 253 253 253 254 256 257
Height
5836 5839 5842 5845 5847 5849 5850 5852 5853 5855 5856 5856 5857 5858 5859 5859 5859 5859 5859 5858 5858 5858 5857 5856 5855 5854 5853 5853 5853 5854 5854 5855 5856 5858 5859 5861 5863 5864 5866 5868 5870 5872 5875 5877
5830 5834 5838 5839 5841 5843 5845 5847 5849 5851 5852 5853 5853 5854 5855 5855 5856 5856 5856 5856 5855 5855 5854 5853 5853 5852 5851 5850 5850 5850 5850 5851 5852 5854 5855 5857 5859 5861 5863 5865 5867 5869 5872 5874
5825 5830 5831 5833 5835 5838 5841 5844 5846 5847 5848 5849 5850 5851 5852 5852 5852 5852 5853 5853 5852 5851 5850 5850 5849 5848 5847 5847 5847 5847 5847 5847 5849 5850 5852 5854 5856 5858 5860 5862 5864 5866 5869 5871
5818 5822 5825 5827 5831 5834 5837 5840 5842 5843 5844 5845 5847 5847 5849 5848 5849 5849 5849 5849 5849 5849 5848 5846 5845 5845 5844 5844 5843 5842 5843 5844 5845 5847 5849 5851 5853 5855 5857 5859 5861 5863 5866 5868
5813 5817 5819 5823 5827 5830 5833 5836 5838 5839 5840 5841 5842 5843 5845 5845 5845 5846 5846 5846 5846 5845 5845 5844 5843 5842 5841 5840 5839 5839 5839 5841 5842 5844 5846 5848 5850 5851 5854 5856 5858 5860 5862 5865
5808 5811 5814 5819 5822 5825 5828 5831 5833 5834 5836 5837 5839 5839 5841 5840 5841 5842 5843 5843 5843 5842 5841 5840 5839 5838 5837 5836 5836 5836 5837 5838 5839 5841 5843 5845 5847 5848 5851 5853 5855 5857 5859 5862
5802 5805 5809 5813 5816 5820 5823 5826 5828 5830 5831 5834 5835 5835 5837 5837 5837 5839 5840 5839 5839 5838 5838 5837 5835 5834 5833 5833 5833 5833 5834 5835 5837 5839 5840 5842 5843 5845 5847 5850 5852 5854 5856 5859
5796 5801 5805 5808 5812 5815 5818 5822 5825 5827 5828 5830 5831 5831 5833 5833 5833 5834 5835 5835 5835 5834 5834 5833 5831 5830 5830 5830 5831 5831 5832 5833 5834 5836 5837 5838 5840 5842 5844 5846 5848 5851 5853 5855
5792 5798 5801 5805 5808 5812 5814 5817 5820 5823 5824 5826 5826 5827 5827 5827 5828 5830 5831 5831 5832 5831 5830 5830 5828 5828 5828 5828 5829 5829 5830 5831 5832 5833 5834 5835 5837 5839 5841 5843 5845 5847 5849 5851
5788 5793 5797 5800 5804 5807 5811 5814 5816 5818 5819 5821 5822 5823 5824 5824 5825 5826 5827 5827 5828 5829 5828 5827 5826 5825 5826 5826 5827 5827 5828 5828 5830 5830 5831 5832 5834 5835 5837 5839 5841 5843 5845 5848
5783 5788 5793 5796 5798 5802 5806 5809 5811 5813 5815 5817 5818 5822 5821 5821 5822 5822 5823 5823 5824 5825 5825 5824 5823 5823 5823 5824 5824 5824 5825 5826 5827 5827 5828 5829 5830 5831 5833 5835 5837 5839 5842 5844
5778 5783 5787 5791 5795 5798 5802 5804 5807 5809 5811 5813 5815 5819 5817 5817 5818 5818 5820 5821 5821 5821 5821 5821 5820 5820 5820 5821 5821 5821 5822 5822 5823 5824 5825 5825 5826 5828 5830 5832 5834 5836 5838 5841
5774 5778 5782 5786 5792 5794 5797 5799 5802 5805 5807 5808 5810 5814 5812 5813 5814 5815 5816 5817 5818 5818 5818 5817 5817 5817 5818 5818 5818 5819 5819 5820 5820 5821 5821 5821 5822 5825 5826 5828 5831 5833 5836 5838
5770 5773 5778 5783 5786 5789 5792 5795 5797 5800 5802 5804 5806 5808 5808 5809 5810 5811 5812 5813 5814 5814 5814 5814 5813 5814 5814 5815 5815 5816 5816 5817 5818 5818 5819 5819 5820 5822 5823 5826 5828 5830 5833 5835
5764 5769 5774 5779 5782 5785 5788 5790 5792 5795 5797 5799 5801 5803 5805 5805 5806 5807 5808 5810 5810 5810 5810 5811 5810 5810 5810 5811 5812 5812 5813 5814 5815 5815 5816 5816 5818 5819 5821 5823 5825 5827 5829 5832
5760 5764 5769 5774 5777 5780 5784 5786 5789 5790 5792 5794 5797 5799 5800 5800 5801 5803 5804 5805 5806 5806 5805 5806 5807 5806 5806 5806 5807 5808 5808 5810 5811 5812 5813 5814 5815 5817 5819 5821 5823 5824 5826 5828
5754 5759 5764 5768 5772 5776 5779 5781 5784 5786 5788 5791 5793 5795 5795 5796 5797 5798 5800 5801 5801 5801 5800 5801 5802 5803 5803 5803 5804 5805 5805 5807 5808 5809 5810 5811 5812 5814 5816 5818 5820 5822 5823 5825
5749 5754 5759 5763 5768 5770 5776 5776 5778 5781 5783 5785 5788 5789 5790 5791 5793 5794 5795 5796 5797 5796 5796 5797 5798 5799 5799 5799 5800 5801 5802 5804 5805 5806 5807 5808 5810 5811 5813 5815 5817 5818 5820 5821
5744 5749 5753 5757 5761 5764 5768 5770 5773 5776 5778 5780 5782 5784 5785 5787 5788 5789 5790 5791 5792 5793 5793 5793 5794 5794 5794 5795 5796 5797 5799 5800 5801 5802 5804 5805 5806 5808 5810 5812 5813 5814 5816 5817
5738 5743 5748 5751 5755 5758 5763 5765 5767 5771 5772 5775 5777 5779 5781 5782 5784 5785 5785 5785 5786 5787 5787 5788 5790 5790 5791 5791 5792 5793 5794 5795 5797 5798 5800 5801 5802 5804 5806 5807 5809 5810 5811 5812
5732 5737 5741 5745 5749 5752 5756 5759 5762 5766 5767 5769 5771 5773 5775 5776 5778 5779 5778 5779 5780 5780 5781 5782 5783 5784 5785 5786 5787 5788 5790 5791 5792 5794 5795 5796 5798 5800 5801 5803 5804 5805 5806 5807
5726 5731 5736 5739 5743 5748 5750 5753 5757 5759 5761 5763 5765 5766 5768 5769 5770 5771 5772 5772 5773 5774 5774 5775 5775 5777 5779 5780 5782 5783 5785 5786 5787 5789 5790 5792 5793 5795 5796 5797 5798 5800 5800 5801
5721 5726 5730 5735 5739 5741 5744 5747 5750 5752 5754 5756 5758 5760 5762 5763 5764 5764 5764 5764 5765 5766 5767 5768 5769 5771 5772 5774 5776 5777 5779 5780 5782 5783 5785 5786 5787 5789 5790 5791 5792 5793 5794 5795
5716 5721 5725 5728 5731 5735 5738 5741 5744 5746 5749 5750 5752 5754 5755 5756 5756 5757 5756 5756 5758 5759 5760 5762 5763 5765 5766 5768 5769 5771 5773 5774 5776 5777 5778 5780 5781 5782 5783 5785 5786 5787 5788 5788
5711 5716 5719 5723 5726 5729 5732 5735 5739 5741 5743 5744 5745 5747 5748 5749 5749 5750 5750 5751 5751 5752 5754 5755 5756 5758 5759 5761 5762 5764 5766 5767 5769 5770 5771 5773 5774 5775 5776 5777 5778 5779 5781 5781
5707 5711 5715 5718 5721 5724 5727 5730 5733 5735 5737 5738 5739 5740 5741 5742 5742 5743 5744 5745 5745 5746 5747 5748 5749 5751 5753 5754 5755 5756 5758 5760 5762 5763 5764 5765 5767 5767 5768 5769 5770 5771 5772 5773